Weather History for Fairbanks Ft. Wainwright, AK

Change the Weather History Date:

Saturday, February 23, 2013

  Actual Average Record
Temperature  
Mean Temperature -6 °F -  
Max Temperature 5 °F 15 °F 21 °F (1998)
Min Temperature -18 °F 0 °F -43 °F (2007)
Degree Days  
Heating Degree Days 72    
Moisture  
Dew Point -14 °F    
Average Humidity 72    
Maximum Humidity 91    
Minimum Humidity 60    
Precipitation  
Precipitation 0.00 in - - ()
Sea Level Pressure  
Sea Level Pressure 29.44 in    
Wind  
Wind Speed 4 mph (NE)    
Max Wind Speed 12 mph    
Max Gust Speed -    
Visibility 10 miles    
Events      
Averages and records for this station are not official NWS values.
T = Trace of Precipitation, MM = Missing Value Source: NWS Daily Summary

Daily Weather History Graph

Daily Weather History Graph

Search for Another Location

Airport:

Trip Planner

Search our weather history database for the weather conditions in past years. The results will help you decide how hot, cold, wet, or windy it might be!

Date:

Astronomy

Feb. 23, 2013 Rise Set
Actual Time 8:19 AM AKST 5:49 PM AKST
Civil Twilight 7:29 AM AKST 6:39 PM AKST
Nautical Twilight 6:32 AM AKST 7:36 PM AKST
Astronomical Twilight 5:35 AM AKST 8:34 PM AKST
Moon 3:48 PM AKST (2/23) 7:15 AM AKST (2/23)
Length of Visible Light 11h 10m
Length of Day
9h 29m
Waxing Gibbous, 96% of the Moon is Illuminated
Feb 23
Waxing Gibbous
Feb 25
Full
Mar 4
Last Quarter
Mar 11
New
Mar 19
First Quarter

Hourly Weather History & Observations

Time (AKST) Temp. Windchill Dew Point Humidity Pressure Visibility Wind Dir Wind Speed Gust Speed Precip Events Conditions
12:56 AM -13.0 °F -30.0 °F -18.9 °F 75% 29.59 in 10.0 mi ENE 8.1 mph - N/A   Clear
1:56 AM -16.1 °F -28.6 °F -22.0 °F 74% 29.57 in 10.0 mi NE 4.6 mph - N/A   Clear
2:56 AM -16.1 °F -33.7 °F -22.0 °F 74% 29.55 in 10.0 mi ENE 8.1 mph - N/A   Clear
3:56 AM -14.1 °F -31.3 °F -20.9 °F 71% 29.53 in 10.0 mi ENE 8.1 mph - N/A   Scattered Clouds
4:56 AM -9.0 °F -28.4 °F -17.0 °F 68% 29.49 in 10.0 mi ENE 11.5 mph - N/A   Overcast
5:56 AM -11.0 °F -26.2 °F -18.9 °F 68% 29.48 in 10.0 mi NE 6.9 mph - N/A   Clear
6:56 AM -11.9 °F -23.8 °F -18.9 °F 71% 29.47 in 10.0 mi NNE 4.6 mph - N/A   Clear
7:56 AM -11.9 °F -21.5 °F -18.9 °F 71% 29.46 in 10.0 mi North 3.5 mph - N/A   Clear
8:56 AM -18.0 °F - -23.1 °F 78% 29.46 in 10.0 mi Calm Calm - N/A   Clear
9:56 AM -17.0 °F -27.2 °F -22.0 °F 78% 29.46 in 10.0 mi NE 3.5 mph - N/A   Clear
10:56 AM -6.0 °F - -13.0 °F 72% 29.44 in 10.0 mi Calm Calm - N/A   Clear
11:56 AM -9.9 °F - -15.0 °F 78% 29.44 in 10.0 mi Calm Calm - N/A   Clear
12:56 PM -6.0 °F - -14.1 °F 68% 29.43 in 10.0 mi Calm Calm - N/A   Overcast
1:56 PM 1.0 °F - -9.0 °F 63% 29.42 in 10.0 mi Calm Calm - N/A   Scattered Clouds
2:56 PM 3.9 °F - -7.1 °F 60% 29.40 in 10.0 mi Calm Calm - N/A   Mostly Cloudy
3:56 PM 1.9 °F - -5.1 °F 72% 29.39 in 10.0 mi Calm Calm - N/A   Overcast
4:56 PM 5.0 °F - -5.1 °F 63% 29.38 in 10.0 mi Calm Calm - N/A   Overcast
5:56 PM 5.0 °F -4.1 °F -5.1 °F 63% 29.37 in 10.0 mi North 4.6 mph - N/A   Mostly Cloudy
6:56 PM 3.0 °F - -5.1 °F 69% 29.37 in 10.0 mi Calm Calm - N/A   Clear
7:56 PM 1.0 °F - -6.0 °F 72% 29.37 in 10.0 mi Calm Calm - N/A   Clear
8:56 PM -0.0 °F - -6.0 °F 76% 29.37 in 10.0 mi Calm Calm - N/A   Clear
9:56 PM -2.9 °F - -7.1 °F 82% 29.38 in 10.0 mi Calm Calm - N/A   Clear
10:56 PM -9.0 °F - -11.0 °F 91% 29.39 in 10.0 mi Calm Calm - N/A   Clear
11:56 PM -11.9 °F - -17.0 °F 78% 29.40 in 10.0 mi Calm Calm - N/A   Clear